FW5442 Weather Reports


time (UTC)temp
C
wind
direction
speed
KPH
gust
KPH
rain 1hr
cm
rain 24hr
cm
rain mn
cm
humidity
%
barometer
mb
20260507201052 19 0 4.8 40.2 0.00 0.81 0.00 49 1015.2
20260507200555 19 331 8.0 40.2 0.00 0.81 0.00 49 1015.1
20260507200053 19 1 6.4 17.7 0.00 0.81 0.00 50 1015.2
20260507195554 19 0 14.5 17.7 0.00 0.86 0.00 51 1015.2
20260507195054 20 322 1.6 20.9 0.00 0.86 0.00 51 1015.2
20260507194556 20 0 4.8 24.1 0.00 0.86 0.00 52 1015.3
20260507194051 20 317 8.0 24.1 0.00 0.86 0.00 52 1015.6
20260507193554 20 339 12.9 27.4 0.00 0.86 0.00 53 1015.4
20260507193059 20 303 6.4 27.4 0.00 0.86 0.00 50 1015.5
20260507192552 20 21 0.0 22.5 0.00 0.86 0.00 50 1015.6
20260507192052 20 0 0.0 22.5 0.00 0.86 0.00 49 1015.7
20260507191601 20 332 17.7 25.7 0.00 0.86 0.00 51 1015.7
20260507191052 19 0 3.2 27.4 0.00 0.86 0.00 50 1015.8
20260507190552 20 333 16.1 27.4 0.00 0.86 0.00 50 1015.9
20260507190057 19 309 4.8 22.5 0.00 0.86 0.00 52 1016.1
20260507185552 19 309 12.9 22.5 0.00 0.86 0.00 50 1016.0
20260507185055 20 30 0.0 22.5 0.00 0.86 0.00 52 1016.0
20260507184558 19 0 0.0 27.4 0.00 0.86 0.00 53 1015.9
20260507184052 19 46 14.5 27.4 0.00 0.86 0.00 52 1016.2
20260507183551 19 44 1.6 25.7 0.00 0.86 0.00 54 1016.1
20260507183055 19 0 0.0 19.3 0.00 0.86 0.00 54 1016.2
20260507182553 19 334 1.6 24.1 0.00 0.86 0.00 52 1016.1
20260507182052 19 0 8.0 27.4 0.00 0.86 0.00 54 1016.3
20260507181558 18 0 6.4 27.4 0.00 0.86 0.00 55 1016.3
20260507181051 18 328 9.7 24.1 0.00 0.86 0.00 52 1016.4
20260507180558 18 0 0.0 12.9 0.00 0.86 0.00 57 1016.3
20260507180058 18 0 0.0 22.5 0.00 0.86 0.00 54 1016.3
20260507175551 18 8 3.2 22.5 0.00 0.86 0.00 55 1016.6
20260507175052 18 336 3.2 20.9 0.00 0.86 0.00 55 1016.6
20260507174604 18 350 3.2 19.3 0.00 0.86 0.00 56 1016.6
20260507174054 18 0 4.8 20.9 0.00 0.86 0.00 55 1016.5
20260507173552 18 336 3.2 20.9 0.00 0.86 0.00 58 1016.6
20260507173103 18 0 3.2 20.9 0.00 0.86 0.00 57 1016.7
20260507172554 18 18 3.2 22.5 0.00 0.86 0.00 58 1016.6
20260507172053 18 0 11.3 22.5 0.00 0.86 0.00 58 1016.7
20260507171611 18 316 6.4 20.9 0.00 0.86 0.00 61 1016.7
20260507171052 18 0 4.8 20.9 0.00 0.86 0.00 61 1016.8
20260507170555 18 0 0.0 17.7 0.00 0.86 0.00 60 1016.8
20260507170057 18 28 3.2 27.4 0.00 0.86 0.00 59 1016.8
20260507165558 18 0 4.8 27.4 0.00 0.86 0.00 59 1017.0
20260507165055 18 0 0.0 17.7 0.00 0.86 0.00 62 1016.9
20260507164605 18 328 0.0 12.9 0.00 0.86 0.00 60 1016.8
20260507164056 18 15 1.6 19.3 0.00 0.86 0.00 62 1016.9
20260507163553 17 0 3.2 22.5 0.00 0.86 0.00 58 1016.9
20260507163053 17 20 4.8 22.5 0.00 0.86 0.00 59 1016.9
20260507162556 17 11 0.0 30.6 0.00 0.86 0.00 62 1016.9
20260507162055 17 348 3.2 30.6 0.00 0.86 0.00 62 1016.8
20260507161603 17 358 3.2 30.6 0.00 0.86 0.00 61 1017.0
20260507161057 17 0 9.7 25.7 0.00 0.86 0.00 63 1017.1
20260507160556 17 0 3.2 25.7 0.00 0.86 0.00 63 1017.3
20260507160059 17 335 1.6 19.3 0.00 0.86 0.00 65 1017.1
20260507155555 17 0 3.2 24.1 0.00 0.86 0.00 64 1017.2
20260507155056 17 0 6.4 24.1 0.00 0.86 0.00 64 1017.2
20260507154557 17 342 12.9 24.1 0.00 0.86 0.00 65 1017.3
20260507154055 16 13 4.8 24.1 0.00 0.86 0.00 66 1017.1
20260507153552 16 311 14.5 24.1 0.00 0.86 0.00 64 1017.2
20260507153052 16 316 12.9 27.4 0.00 0.86 0.00 64 1017.2
20260507152555 16 27 14.5 27.4 0.00 0.86 0.00 67 1017.2
20260507152052 16 25 9.7 19.3 0.00 0.86 0.00 66 1017.2
20260507151552 16 30 12.9 27.4 0.00 0.86 0.00 67 1017.2
20260507151056 16 13 8.0 27.4 0.00 0.86 0.00 66 1017.1
20260507150555 16 58 8.0 27.4 0.00 0.86 0.00 65 1017.1
20260507145556 16 118 11.3 29.0 0.00 0.86 0.00 68 1017.4
20260507145055 16 55 12.9 29.0 0.00 0.86 0.00 67 1017.4
20260507144553 16 55 12.9 24.1 0.00 0.86 0.00 68 1017.4
20260507144056 16 0 3.2 24.1 0.00 0.86 0.00 71 1017.3
20260507143559 15 20 9.7 24.1 0.00 0.86 0.00 71 1017.2
20260507143104 15 46 9.7 24.1 0.00 0.86 0.00 71 1017.2
20260507142555 15 17 9.7 27.4 0.00 0.86 0.00 70 1017.1
20260507142055 15 39 9.7 27.4 0.00 0.86 0.00 72 1017.1
20260507141557 15 6 3.2 17.7 0.00 0.86 0.00 74 1017.3
20260507141053 15 10 6.4 24.1 0.00 0.86 0.00 73 1017.3
20260507140552 15 353 8.0 24.1 0.00 0.86 0.00 76 1017.4
20260507140058 15 356 11.3 25.7 0.00 0.86 0.00 76 1017.2
20260507135556 14 333 12.9 25.7 0.00 0.89 0.00 76 1017.2
20260507135056 14 349 11.3 22.5 0.00 0.89 0.00 79 1017.3
20260507134557 13 359 9.7 22.5 0.00 0.89 0.00 78 1017.0
20260507134055 13 350 8.0 19.3 0.00 0.89 0.00 81 1017.0
20260507133555 13 8 11.3 20.9 0.00 0.89 0.00 81 1016.9
20260507133058 13 322 11.3 22.5 0.00 0.89 0.00 81 1016.9
20260507132556 13 17 11.3 22.5 0.00 0.89 0.00 82 1016.9
20260507132055 13 11 11.3 22.5 0.00 0.89 0.00 82 1016.9
20260507131612 13 15 6.4 19.3 0.00 0.89 0.00 84 1016.8
20260507131057 13 15 8.0 19.3 0.00 0.89 0.00 84 1016.7
20260507130552 12 13 12.9 19.3 0.00 0.89 0.00 84 1016.8
20260507130057 12 18 11.3 20.9 0.00 0.89 0.00 84 1016.7
20260507125553 12 5 12.9 20.9 0.00 0.89 0.00 84 1016.6
20260507125055 12 348 12.9 20.9 0.00 0.89 0.00 83 1016.5
20260507124556 12 15 9.7 17.7 0.00 0.89 0.00 82 1016.4
20260507124056 12 13 11.3 16.1 0.00 0.89 0.00 81 1016.3
20260507123556 12 338 9.7 17.7 0.00 0.89 0.00 79 1016.3
20260507123106 11 307 9.7 17.7 0.00 0.89 0.00 78 1016.3
20260507122555 11 347 11.3 17.7 0.00 0.89 0.00 78 1016.1
20260507122055 11 336 9.7 17.7 0.00 0.89 0.00 77 1016.2
20260507121605 11 318 12.9 17.7 0.00 0.89 0.00 77 1016.1
20260507121056 11 335 8.0 12.9 0.00 0.89 0.00 76 1016.0
20260507120555 11 10 6.4 12.9 0.00 0.89 0.00 76 1015.9
20260507120056 11 338 9.7 16.1 0.00 0.89 0.00 75 1015.8
20260507115555 11 1 9.7 16.1 0.00 0.91 0.00 74 1015.7
20260507115055 11 30 6.4 12.9 0.00 0.91 0.00 73 1015.9
20260507114601 11 8 6.4 11.3 0.00 0.91 0.00 73 1015.7
20260507114056 11 344 6.4 14.5 0.00 0.91 0.00 73 1015.7
20260507113555 11 335 8.0 14.5 0.00 0.91 0.00 74 1015.8
20260507113100 11 338 8.0 19.3 0.00 0.91 0.00 74 1015.7
20260507112556 11 337 11.3 19.3 0.00 0.91 0.00 74 1015.8
20260507112056 11 338 9.7 17.7 0.00 0.91 0.00 75 1015.7
20260507111555 11 344 12.9 19.3 0.00 0.91 0.00 74 1015.5
20260507111058 11 333 11.3 19.3 0.00 0.91 0.00 74 1015.3
20260507110555 11 10 11.3 20.9 0.00 0.91 0.00 74 1015.3
20260507110108 11 336 11.3 22.5 0.00 0.91 0.00 75 1015.2
20260507105558 11 335 14.5 22.5 0.00 0.91 0.00 75 1015.2
20260507105056 11 334 12.9 20.9 0.00 0.91 0.00 74 1015.0
20260507104614 11 11 12.9 19.3 0.00 0.91 0.00 73 1014.9
20260507104052 11 330 11.3 17.7 0.00 0.91 0.00 72 1014.8
20260507103556 11 327 11.3 16.1 0.00 0.91 0.00 71 1014.7
20260507103057 11 335 8.0 14.5 0.00 0.91 0.00 70 1014.5
20260507102556 11 316 11.3 14.5 0.00 0.91 0.00 70 1014.6
20260507102056 11 345 8.0 14.5 0.00 0.91 0.00 70 1014.4
20260507101558 11 332 9.7 16.1 0.00 0.91 0.00 70 1014.5
20260507101055 11 337 11.3 16.1 0.00 0.91 0.00 69 1014.5
20260507100555 11 338 8.0 17.7 0.00 0.91 0.00 69 1014.6
20260507100054 11 351 9.7 17.7 0.00 0.91 0.00 69 1014.5
20260507095555 11 313 9.7 14.5 0.00 0.91 0.00 69 1014.7
20260507095055 11 345 9.7 12.9 0.00 0.91 0.00 68 1014.6
20260507094608 12 352 8.0 12.9 0.00 0.91 0.00 67 1014.5
20260507094055 12 331 6.4 12.9 0.00 0.91 0.00 66 1014.4
20260507093556 12 331 6.4 12.9 0.00 0.91 0.00 66 1014.3
20260507093059 12 331 6.4 12.9 0.00 0.91 0.00 65 1014.3
20260507092555 12 333 8.0 16.1 0.00 0.91 0.00 65 1014.3
20260507092056 12 323 6.4 17.7 0.00 0.91 0.00 64 1014.3
20260507091635 12 6 11.3 17.7 0.00 0.91 0.00 63 1014.3
20260507091056 12 333 9.7 14.5 0.00 0.91 0.00 61 1014.4
20260507090556 12 337 9.7 14.5 0.00 0.91 0.00 60 1014.2
20260507090106 12 333 8.0 16.1 0.00 0.91 0.00 59 1014.3
20260507085555 12 347 8.0 19.3 0.00 0.91 0.00 60 1014.1
20260507085056 12 340 11.3 19.3 0.00 0.91 0.00 59 1014.3
20260507084557 12 318 9.7 17.7 0.00 0.91 0.00 58 1014.4
20260507084056 12 333 0.0 17.7 0.00 0.91 0.00 56 1014.3
20260507083555 12 333 12.9 17.7 0.00 0.91 0.00 55 1014.1
20260507083053 12 351 11.3 17.7 0.00 0.91 0.00 53 1014.1
20260507082555 12 324 9.7 16.1 0.00 0.91 0.00 51 1014.2
20260507082056 12 339 8.0 14.5 0.00 0.91 0.00 48 1014.1
20260507081556 12 353 1.6 17.7 0.00 0.91 0.00 45 1014.1
20260507081055 12 341 8.0 17.7 0.00 0.91 0.00 43 1014.1
20260507080555 12 349 9.7 17.7 0.00 0.91 0.00 42 1014.1
20260507080053 12 18 8.0 16.1 0.00 0.91 0.00 42 1014.1
20260507075555 12 360 9.7 17.7 0.00 0.91 0.00 41 1014.2
20260507075052 12 13 9.7 20.9 0.00 0.91 0.00 42 1014.3
20260507074559 11 360 12.9 20.9 0.00 0.91 0.00 42 1014.4
20260507074055 11 333 9.7 17.7 0.00 0.91 0.00 42 1014.6
20260507073558 11 10 9.7 17.7 0.00 0.91 0.00 42 1014.6
20260507073100 11 328 12.9 17.7 0.00 0.91 0.00 42 1015.0
20260507072556 11 332 9.7 14.5 0.00 0.91 0.00 42 1015.0
20260507072058 11 334 4.8 16.1 0.00 0.91 0.00 42 1014.9
20260507071602 11 355 9.7 17.7 0.00 0.91 0.00 42 1014.9
20260507071055 11 348 9.7 17.7 0.00 0.91 0.00 42 1014.9
20260507070555 11 332 9.7 14.5 0.00 0.91 0.00 42 1014.6
20260507070109 11 17 6.4 17.7 0.00 0.91 0.00 42 1014.5
20260507065555 11 12 9.7 17.7 0.00 0.91 0.00 42 1014.9
20260507065055 11 120 9.7 22.5 0.00 0.91 0.00 42 1014.4
20260507064601 11 11 11.3 22.5 0.00 0.91 0.00 42 1014.0
20260507064055 11 11 12.9 22.5 0.00 0.91 0.00 43 1014.2
20260507063553 11 16 12.9 17.7 0.00 0.91 0.00 43 1013.9
20260507063102 11 9 11.3 19.3 0.00 0.91 0.00 43 1014.3
20260507062554 11 12 8.0 19.3 0.00 0.91 0.00 43 1014.6
20260507062057 11 1 11.3 19.3 0.00 0.91 0.00 43 1014.2
20260507061559 11 314 9.7 16.1 0.00 0.91 0.00 43 1014.3
20260507061057 11 4 8.0 16.1 0.00 0.91 0.00 43 1014.7
20260507060555 11 8 9.7 16.1 0.00 0.91 0.00 43 1014.6
20260507060112 11 293 9.7 16.1 0.00 0.91 0.00 43 1014.5
20260507055556 11 27 8.0 14.5 0.00 0.91 0.00 43 1014.6
20260507055055 11 19 4.8 16.1 0.00 0.91 0.00 44 1014.4
20260507054055 11 25 8.0 14.5 0.00 0.91 0.00 44 1014.5
20260507053555 11 342 3.2 11.3 0.00 0.91 0.00 44 1014.7
20260507053100 11 0 0.0 12.9 0.00 0.91 0.00 45 1014.6
20260507052555 11 38 1.6 12.9 0.03 0.91 0.00 45 1014.5
20260507052055 11 0 6.4 16.1 0.15 0.91 0.00 45 1014.1
20260507051559 11 44 3.2 16.1 0.74 0.91 0.00 46 1014.4
20260507051054 11 349 9.7 19.3 0.81 0.91 0.00 46 1014.4
20260507050555 11 19 9.7 19.3 0.81 0.91 0.00 47 1014.4
20260507050100 11 342 11.3 19.3 0.81 0.91 0.00 47 1014.6
20260507045556 11 7 6.4 19.3 0.81 0.91 0.91 48 1014.1
20260507045056 11 341 9.7 19.3 0.81 0.91 0.91 48 1013.8
20260507044605 11 21 9.7 17.7 0.81 0.91 0.91 49 1013.8
20260507044055 11 11 8.0 17.7 0.81 0.91 0.91 51 1014.2
20260507043555 11 14 8.0 14.5 0.81 0.91 0.91 52 1014.3
20260507043101 11 0 1.6 20.9 0.81 0.91 0.91 54 1014.2
20260507042553 11 6 6.4 27.4 0.79 0.89 0.89 58 1014.1
20260507042058 12 19 12.9 27.4 0.66 0.76 0.76 66 1013.9
20260507041558 12 339 17.7 24.1 0.08 0.18 0.18 76 1014.4
20260507041057 12 329 14.5 24.1 0.00 0.10 0.10 78 1014.9
20260507040555 12 339 14.5 24.1 0.00 0.10 0.10 79 1014.3
20260507040056 12 34 14.5 24.1 0.00 0.10 0.10 79 1013.8
20260507035555 12 14 12.9 24.1 0.00 0.10 0.10 80 1013.4
20260507035055 12 32 9.7 29.0 0.00 0.10 0.10 80 1013.7
20260507034600 12 15 11.3 29.0 0.00 0.10 0.10 80 1013.5
20260507034055 12 357 6.4 25.7 0.00 0.10 0.10 79 1014.2
20260507033556 12 27 11.3 25.7 0.00 0.10 0.10 79 1013.5
20260507033056 12 340 11.3 22.5 0.00 0.10 0.10 79 1014.1
20260507032555 12 23 14.5 20.9 0.00 0.10 0.10 79 1014.3
20260507032055 12 340 14.5 27.4 0.00 0.10 0.10 79 1014.3
20260507031600 12 2 14.5 27.4 0.00 0.10 0.10 79 1014.3
20260507031055 12 333 14.5 29.0 0.00 0.10 0.10 79 1014.0
20260507030555 12 354 14.5 29.0 0.00 0.10 0.10 79 1014.3
20260507030057 12 354 16.1 27.4 0.00 0.10 0.10 79 1014.3
20260507025555 12 358 12.9 22.5 0.00 0.10 0.10 79 1014.1
20260507025055 12 19 11.3 24.1 0.00 0.10 0.10 79 1014.3
20260507024602 12 0 9.7 24.1 0.00 0.10 0.10 79 1014.3
20260507024055 12 6 11.3 22.5 0.00 0.10 0.10 79 1013.9
20260507023555 12 289 11.3 22.5 0.00 0.10 0.10 79 1014.0
20260507023058 12 39 12.9 22.5 0.00 0.10 0.10 80 1013.9
20260507022555 12 13 12.9 24.1 0.00 0.10 0.10 80 1014.2
20260507022052 12 342 12.9 24.1 0.00 0.10 0.10 79 1014.1
20260507021601 12 30 11.3 22.5 0.00 0.10 0.10 79 1014.1
20260507021052 12 314 11.3 22.5 0.00 0.10 0.10 79 1013.9
20260507020556 12 337 12.9 22.5 0.00 0.10 0.10 79 1013.9
20260507020101 12 0 6.4 22.5 0.00 0.10 0.10 79 1013.6
20260507015555 12 0 6.4 25.7 0.00 0.10 0.10 80 1013.0
20260507015052 12 37 11.3 29.0 0.00 0.10 0.10 80 1013.0
20260507014553 12 23 14.5 29.0 0.00 0.10 0.10 80 1012.9
20260507014052 12 356 16.1 24.1 0.00 0.10 0.10 80 1012.9
20260507013557 12 327 16.1 25.7 0.00 0.10 0.10 79 1012.8
20260507013058 12 4 11.3 29.0 0.00 0.10 0.10 79 1012.7
20260507012556 12 356 16.1 33.8 0.00 0.10 0.10 79 1012.7
20260507012055 12 11 17.7 33.8 0.00 0.10 0.10 80 1012.6
20260507011558 12 343 16.1 29.0 0.00 0.10 0.10 80 1012.9
20260507011055 12 359 17.7 29.0 0.00 0.10 0.10 80 1012.7
20260507010555 12 5 14.5 29.0 0.00 0.10 0.10 80 1012.9
20260507010110 12 10 16.1 25.7 0.00 0.10 0.10 80 1012.9
20260507005556 12 346 14.5 24.1 0.00 0.10 0.10 81 1013.2
20260507005055 12 314 11.3 19.3 0.00 0.10 0.10 80 1013.4
20260507004554 12 323 8.0 22.5 0.00 0.10 0.10 80 1013.0
20260507004055 12 26 11.3 25.7 0.00 0.10 0.10 80 1012.9
20260507003555 12 321 16.1 29.0 0.00 0.10 0.10 81 1012.9
20260507003056 12 5 17.7 29.0 0.00 0.10 0.10 82 1012.4
20260507002554 12 350 14.5 30.6 0.00 0.10 0.10 81 1012.4
20260507002055 12 27 12.9 30.6 0.00 0.10 0.10 81 1012.4
20260507001559 12 316 16.1 30.6 0.00 0.10 0.10 82 1012.4
20260507001054 12 23 14.5 24.1 0.00 0.10 0.10 81 1012.2
20260507000557 13 3 14.5 27.4 0.00 0.10 0.10 81 1012.5
20260507000101 13 23 11.3 29.0 0.00 0.10 0.10 81 1012.7
20260506235556 13 356 11.3 29.0 0.00 0.10 0.10 81 1012.8
20260506235058 13 21 16.1 29.0 0.00 0.10 0.10 82 1012.8
20260506234602 13 326 14.5 27.4 0.00 0.10 0.10 82 1013.1
20260506234055 13 18 12.9 27.4 0.00 0.10 0.10 82 1012.8
20260506233552 13 21 16.1 27.4 0.00 0.10 0.10 82 1012.9
20260506233105 13 9 14.5 24.1 0.00 0.10 0.10 82 1012.9
20260506232554 13 340 12.9 22.5 0.00 0.10 0.10 81 1012.8
20260506232054 13 359 9.7 22.5 0.00 0.10 0.10 82 1012.8
20260506231558 13 6 11.3 22.5 0.00 0.10 0.10 82 1012.7
20260506231055 13 11 6.4 20.9 0.00 0.10 0.10 83 1012.8
20260506230556 13 8 4.8 22.5 0.00 0.10 0.10 82 1012.9
20260506230059 13 15 14.5 22.5 0.00 0.10 0.10 82 1012.5
20260506225558 13 351 14.5 20.9 0.00 0.10 0.10 82 1012.4
20260506225059 13 352 11.3 20.9 0.00 0.10 0.10 82 1012.3
20260506224600 13 0 9.7 19.3 0.00 0.10 0.10 83 1012.3
20260506224054 13 6 9.7 19.3 0.00 0.10 0.10 83 1012.5
20260506223555 13 23 4.8 14.5 0.00 0.10 0.10 82 1012.5
20260506223101 13 21 6.4 14.5 0.00 0.10 0.10 82 1012.4
20260506222555 13 4 0.0 16.1 0.00 0.10 0.10 82 1012.3
20260506222055 13 0 1.6 16.1 0.00 0.10 0.10 83 1012.6
20260506221608 13 339 6.4 16.1 0.00 0.10 0.10 83 1012.4
20260506221055 13 0 0.0 9.7 0.00 0.10 0.10 81 1012.4
20260506220557 13 27 3.2 17.7 0.00 0.10 0.10 82 1012.3
20260506220057 13 22 1.6 17.7 0.00 0.10 0.10 81 1012.3
20260506215555 13 32 6.4 17.7 0.00 0.10 0.10 82 1012.4
20260506215056 13 39 0.0 17.7 0.00 0.10 0.10 80 1012.4
20260506214601 13 51 6.4 17.7 0.00 0.10 0.10 81 1012.4
20260506214052 13 321 1.6 16.1 0.00 0.10 0.10 81 1012.1
20260506213554 13 0 4.8 24.1 0.00 0.10 0.10 80 1012.1
20260506213057 12 31 4.8 24.1 0.00 0.10 0.10 80 1011.7
20260506212555 12 356 8.0 19.3 0.00 0.10 0.10 80 1011.6
20260506212056 12 23 4.8 19.3 0.00 0.10 0.10 77 1011.5
20260506211559 12 0 9.7 19.3 0.00 0.10 0.10 78 1011.8
20260506211055 12 0 9.7 19.3 0.00 0.10 0.10 76 1012.1
20260506210554 12 345 6.4 16.1 0.00 0.10 0.10 76 1012.4
20260506210057 12 0 4.8 16.1 0.00 0.10 0.10 75 1012.7
20260506205551 12 300 6.4 16.1 0.00 0.10 0.10 76 1012.6
20260506205055 12 316 0.0 16.1 0.00 0.10 0.10 74 1012.0
20260506204613 12 2 1.6 24.1 0.03 0.10 0.10 74 1012.0
20260506204055 12 14 9.7 33.8 0.03 0.10 0.10 75 1012.0
20260506203554 12 0 6.4 33.8 0.03 0.10 0.10 75 1011.9
20260506203056 12 6 14.5 32.2 0.05 0.10 0.10 73 1013.1
20260506202556 12 28 14.5 32.2 0.05 0.10 0.10 71 1013.4
20260506202055 12 7 20.9 38.6 0.05 0.10 0.10 70 1013.5
20260506201600 12 322 17.7 38.6 0.05 0.10 0.10 69 1013.5